GEFSNE_500_meanwind_318.txt.gz
Wind_Speed
18 17 17 17 17 17 17 17 17 17 17 17 17 17 17 18 18 18 18 18 18 18 18 18 18 18 18 19 19 19 20 21 21 21 21 21 22 22
18 17 17 17 17 17 17 17 16 17 17 17 17 17 18 18 18 19 19 19 19 19 19 19 19 19 19 19 19 20 20 21 21 21 20 21 21 22
18 18 17 17 17 17 17 17 17 17 17 17 17 18 18 18 18 19 20 20 20 20 20 19 19 20 19 19 19 19 20 20 21 21 21 21 21 22
19 18 18 18 18 18 18 18 18 17 17 17 17 17 18 18 18 19 19 19 19 20 20 20 20 19 19 19 19 20 20 20 20 21 21 21 22 23
20 19 19 19 19 19 19 18 19 19 18 18 18 18 18 18 18 19 19 19 20 21 21 20 20 20 20 20 20 20 21 21 21 21 21 22 22 23
20 19 20 20 20 20 20 19 19 19 19 19 19 19 19 19 19 19 20 20 20 20 21 21 21 21 21 21 21 21 21 21 21 22 22 22 22 22
21 20 20 20 20 20 20 20 20 20 20 20 20 20 20 20 20 20 20 20 21 21 21 22 22 21 21 21 21 21 22 22 22 23 23 23 23 23
21 21 21 21 20 20 20 20 20 20 21 21 21 21 21 21 21 21 21 21 21 21 22 22 22 22 22 22 22 22 23 23 23 23 23 23 23 23
22 22 21 21 21 21 21 21 21 21 21 21 21 22 22 21 21 21 22 22 22 22 22 22 23 23 23 23 24 24 24 23 23 23 24 24 24 23
23 22 22 22 23 23 23 23 23 22 22 22 21 22 22 22 22 22 22 22 22 21 21 22 22 22 23 23 23 24 24 24 24 24 25 25 25 25
22 22 22 23 23 24 24 24 23 23 23 22 22 22 22 22 23 22 22 23 22 23 23 23 23 23 23 23 23 24 24 25 25 25 26 25 25 25
24 24 23 23 24 24 25 25 24 24 24 24 23 23 23 22 22 22 23 24 23 23 23 23 23 24 24 24 24 24 24 25 25 25 25 25 24 24
25 25 25 25 25 25 25 25 25 26 26 25 25 25 25 24 24 24 24 24 24 24 23 23 23 24 24 24 24 25 25 25 25 25 25 25 25 25
26 26 26 26 26 26 26 26 27 28 28 27 28 28 27 25 25 25 25 25 25 25 24 24 24 24 24 24 24 25 25 25 25 26 26 26 26 26
28 28 28 27 27 27 27 27 28 28 28 28 28 28 27 27 26 26 25 25 25 25 25 25 25 25 26 25 25 25 26 26 27 27 27 26 26 26
29 30 30 29 28 28 28 28 28 28 29 29 28 28 28 27 27 27 27 27 26 25 26 26 26 26 27 27 26 26 27 27 27 27 27 27 27 27
30 31 31 30 30 29 29 29 29 29 28 27 28 28 29 29 29 29 29 28 28 27 27 27 26 27 27 27 27 27 27 27 27 28 28 28 28 27
32 32 32 31 31 30 30 30 30 30 29 28 28 29 29 30 30 30 29 29 29 28 28 28 27 27 27 28 28 28 28 28 28 28 28 28 28 27
32 32 32 31 31 31 31 31 31 30 30 30 29 30 30 30 30 30 29 30 30 29 29 29 29 29 29 29 29 28 28 28 28 28 28 27 27 27
33 32 32 32 32 31 31 31 31 30 29 29 30 31 31 31 31 30 30 30 29 29 29 29 30 30 30 29 30 30 29 29 29 28 28 27 27 27
33 33 32 32 33 33 33 32 32 31 30 29 30 30 31 31 31 30 30 30 29 30 30 29 30 30 29 29 30 30 30 29 29 28 28 28 28 28
34 34 34 34 34 34 34 33 32 31 30 29 29 30 30 30 30 29 29 29 29 29 30 30 30 30 30 29 29 30 30 30 29 29 29 28 29 28
34 34 34 34 34 34 34 33 32 31 31 30 30 30 30 30 30 30 30 30 30 30 30 29 30 30 29 29 29 29 30 30 30 29 30 30 30 29

GEFSNE_500_meanwind_324.txt.gz
Wind_Speed
17 16 16 16 17 17 18 17 17 17 17 17 17 17 18 18 19 19 19 19 20 20 20 20 20 21 22 21 20 20 20 21 21 20 20 21 20 20
19 18 18 18 17 18 18 17 17 17 17 18 18 18 18 19 19 20 20 20 20 20 20 20 20 20 21 21 21 21 21 21 21 22 22 22 22 21
19 19 20 20 19 18 18 18 17 17 17 18 18 18 18 19 19 19 20 20 20 20 20 20 20 20 19 20 20 20 20 21 21 22 22 22 22 22
19 20 20 20 20 20 19 19 19 18 18 18 19 19 19 19 20 20 20 21 21 21 21 21 21 21 20 19 20 20 21 21 22 22 22 22 22 22
20 21 21 20 20 20 20 20 20 20 19 20 20 20 20 20 20 21 21 21 20 21 21 21 21 21 21 21 21 21 21 22 22 22 21 22 22 23
21 21 21 21 21 20 20 20 21 21 21 21 21 21 21 22 22 22 22 22 22 21 21 21 22 22 22 21 21 21 21 22 22 22 22 22 22 23
21 21 21 21 21 21 21 21 21 21 21 22 22 22 22 23 23 23 23 22 22 22 21 22 23 23 23 23 23 23 22 22 21 22 22 22 23 23
22 22 22 22 22 21 20 20 20 21 22 22 23 23 23 24 24 24 24 24 23 23 22 23 23 24 24 24 24 23 23 23 22 22 23 23 23 23
21 22 22 22 22 22 22 21 21 22 23 23 24 24 24 24 24 24 25 24 24 24 24 23 23 23 24 24 24 24 24 24 23 23 23 23 23 24
23 23 23 23 23 22 22 23 23 24 24 24 25 25 25 25 25 25 25 25 24 24 24 24 23 23 24 24 24 24 24 23 23 23 23 24 24 24
24 24 24 24 24 24 24 24 24 24 24 23 24 24 24 25 25 25 25 24 24 25 25 25 24 24 24 24 24 24 24 24 24 24 24 24 24 24
25 25 25 25 25 25 25 25 25 26 25 25 25 24 24 24 24 24 24 25 25 25 25 26 25 25 25 25 25 24 24 24 24 24 24 24 24 24
26 26 27 27 27 27 27 27 27 27 26 26 26 26 26 25 24 25 25 25 25 26 26 26 26 26 26 25 25 25 25 25 25 24 24 25 25 24
27 28 28 29 28 28 28 28 28 28 27 27 27 27 26 26 25 26 26 26 26 27 27 27 27 27 26 26 26 25 25 25 25 25 25 25 25 25
29 29 30 30 30 29 29 28 28 29 28 28 27 27 27 26 26 26 26 27 27 27 27 27 27 27 27 27 26 26 26 26 26 26 26 26 26 26
30 30 30 30 30 30 30 30 30 30 29 28 28 27 27 28 27 27 27 28 29 28 27 28 28 27 27 27 27 27 26 27 27 28 28 27 27 27
31 31 31 31 31 31 31 30 30 30 30 29 28 28 28 27 28 27 28 29 29 30 30 29 28 28 28 27 27 27 26 27 28 28 28 28 27 27
31 31 31 31 31 31 31 31 31 31 30 30 30 29 29 29 29 29 29 29 29 29 29 29 29 29 29 28 29 29 28 28 27 27 28 28 28 28
31 31 31 31 31 31 31 31 31 31 30 31 30 30 29 30 30 30 30 30 30 30 30 30 29 29 29 28 28 29 29 29 29 28 27 28 28 28
32 32 31 31 31 30 30 30 30 30 30 30 31 30 30 30 31 31 31 30 30 30 30 29 29 29 29 29 28 28 28 28 28 28 28 28 28 27
33 33 32 32 32 31 31 31 31 31 31 31 31 31 31 31 31 32 32 31 31 31 30 29 29 29 29 29 29 28 28 28 28 28 28 28 28 28
33 33 32 32 32 31 31 32 32 31 31 32 32 32 33 33 32 32 33 32 31 31 31 30 30 30 30 29 29 28 29 29 29 28 28 28 28 28
32 32 32 32 31 31 31 31 32 32 31 31 32 32 33 33 33 32 32 32 32 32 32 31 30 30 30 30 29 29 29 29 29 28 28 28 29 29

GEFSNE_500_meanwind_330.txt.gz
Wind_Speed
19 18 18 18 18 18 18 18 18 18 19 19 19 18 19 20 20 20 21 21 22 22 22 22 22 22 21 21 21 22 22 22 22 22 21 21 21 22
19 19 19 19 18 18 18 18 18 18 18 19 20 20 20 19 20 21 21 22 22 22 22 23 23 23 22 22 22 22 22 22 22 22 21 22 22 21
19 19 19 19 19 19 18 18 18 18 19 20 21 20 20 21 21 20 21 22 22 22 22 22 22 23 24 23 23 23 23 23 23 22 22 22 22 22
20 20 20 20 20 20 19 19 19 19 19 20 21 21 21 21 21 20 20 20 21 21 21 22 22 23 24 24 24 23 23 23 23 22 22 22 22 22
21 21 21 21 21 21 21 20 20 20 20 20 21 21 21 21 21 20 20 20 20 20 20 21 21 21 22 22 22 22 22 22 22 22 22 22 22 22
20 21 21 21 21 21 21 21 21 21 21 21 21 21 21 21 21 20 20 20 20 20 20 20 20 21 21 21 21 22 22 23 22 22 22 21 22 21
20 20 21 21 21 21 21 22 22 22 22 22 22 21 21 21 21 21 21 21 21 20 20 20 20 20 21 21 21 22 22 23 22 22 21 22 22 22
20 20 21 21 21 21 22 23 23 23 23 22 22 22 22 22 22 22 22 21 21 21 20 20 21 20 20 20 21 21 21 22 22 22 22 22 23 23
20 21 21 21 21 22 23 23 23 24 24 23 23 23 23 23 23 23 23 22 22 22 21 21 21 20 20 20 21 21 21 22 23 23 23 24 23 23
21 21 22 22 22 23 23 23 23 24 25 24 24 24 24 24 24 24 23 23 22 22 22 22 22 22 22 22 23 23 22 22 23 23 24 23 23 23
22 22 23 23 23 23 23 24 24 25 25 26 26 26 25 25 25 25 24 24 23 23 23 22 23 24 24 24 24 24 24 24 23 23 23 23 23 24
24 25 25 24 24 24 25 25 25 25 26 27 27 27 27 27 26 26 26 25 25 24 23 23 24 24 24 25 25 25 25 25 25 24 24 24 25 25
26 26 26 25 25 25 26 26 27 27 27 28 28 28 28 28 27 27 26 26 26 25 25 25 26 26 25 25 26 26 26 26 26 26 25 25 25 25
27 27 27 26 27 27 27 27 28 28 28 28 28 28 29 29 28 28 27 26 26 26 26 26 27 27 27 27 27 26 26 26 26 26 26 26 26 26
28 28 28 28 28 27 28 28 28 28 28 29 29 28 28 29 29 28 27 26 26 26 26 26 26 27 27 28 27 27 27 27 26 26 26 26 26 26
29 29 29 29 29 28 28 29 29 29 29 29 29 29 29 30 29 29 27 26 26 26 26 26 26 26 27 27 27 27 27 27 27 27 27 27 26 26
29 29 29 29 29 29 30 30 31 31 30 30 30 30 30 31 30 29 28 27 26 26 26 27 27 27 27 27 28 28 28 28 28 28 28 27 26 26
30 30 30 30 30 30 30 31 31 31 31 31 31 30 30 30 29 29 28 28 27 27 27 27 28 28 27 27 27 27 28 28 28 28 28 27 27 26
30 30 30 30 30 30 31 31 31 30 30 30 30 30 30 29 29 29 29 29 29 29 28 29 29 29 28 28 27 28 28 28 28 28 27 27 26 26
30 30 31 32 31 31 31 31 31 31 30 30 29 29 29 29 29 29 29 29 29 29 29 29 29 29 29 29 29 28 29 28 28 28 28 27 27 27
32 31 32 32 31 31 31 32 32 31 31 30 29 29 28 28 28 28 29 29 29 29 29 29 29 29 30 30 30 29 29 30 29 29 28 28 28 27
32 32 32 32 33 33 33 33 33 32 31 31 30 30 29 28 28 28 29 29 29 29 29 29 29 30 30 30 30 30 30 30 29 29 28 28 28 28
33 32 32 32 32 32 33 33 32 32 31 30 30 29 29 29 29 28 29 29 29 29 29 30 30 30 30 30 30 30 30 30 30 30 29 30 29 29

GEFSNE_500_meanwind_336.txt.gz
Wind_Speed
18 18 17 18 18 17 17 17 17 17 17 18 18 19 18 19 19 19 20 21 21 22 22 22 22 22 23 23 23 23 23 23 22 22 22 22 23 23
19 19 18 18 18 18 18 18 18 18 18 18 19 19 20 20 20 20 20 21 22 23 23 23 23 23 24 23 23 24 24 23 23 23 23 23 23 23
20 20 20 20 19 19 19 19 20 20 20 20 20 20 20 20 21 21 21 22 23 23 24 24 24 24 24 24 24 24 24 24 23 24 23 22 23 22
21 21 20 20 20 20 20 20 20 21 21 21 21 20 20 20 21 21 21 21 22 23 23 24 24 24 24 24 24 24 24 23 23 23 22 22 22 22
21 21 21 21 21 21 21 20 20 21 21 21 21 21 21 21 21 21 21 21 22 23 23 23 23 23 24 24 25 25 24 23 23 23 22 22 22 22
21 21 21 22 22 22 21 21 21 21 21 21 21 21 22 22 22 22 22 22 22 22 23 24 24 24 24 24 24 24 24 25 24 24 23 23 22 22
21 21 21 21 22 22 22 22 22 21 21 21 22 22 22 23 23 23 23 23 23 23 24 24 25 24 24 24 23 24 25 25 24 24 24 24 23 23
22 22 21 21 21 22 22 22 22 22 22 22 22 22 22 23 23 23 23 23 23 23 23 24 24 24 25 24 24 24 24 24 25 25 25 24 24 23
22 22 21 21 22 21 22 23 23 23 23 23 22 22 22 22 23 23 23 23 23 23 23 23 23 23 24 24 24 25 25 25 25 25 25 25 25 25
22 22 21 21 22 22 22 22 23 23 23 23 22 22 23 23 23 23 23 23 24 23 23 23 24 24 24 25 25 24 24 25 24 24 25 25 25 25
22 21 21 22 22 23 23 23 23 24 24 24 23 24 24 24 24 24 23 24 24 24 25 24 25 25 24 25 25 25 25 25 25 26 26 26 26 26
22 22 22 22 23 23 23 23 23 23 23 23 23 24 24 24 24 24 24 25 25 25 25 25 25 26 25 26 26 25 26 26 26 26 27 26 27 26
24 24 24 23 24 24 24 23 23 23 24 24 24 25 25 25 25 25 25 26 26 26 26 26 26 26 26 26 26 26 26 27 27 27 27 27 28 28
25 25 25 25 25 25 24 24 24 25 25 25 26 26 26 26 26 26 26 27 27 27 27 26 26 26 26 26 26 27 28 28 28 28 28 28 29 29
26 26 27 26 26 26 26 26 26 26 26 27 27 27 27 27 27 27 27 28 28 29 29 27 27 27 27 27 27 28 29 29 29 29 30 29 29 29
27 28 28 27 27 28 28 27 27 27 27 28 28 28 28 29 29 29 29 29 29 29 30 30 29 28 28 28 28 29 29 30 30 30 30 31 31 31
28 28 28 28 29 29 28 28 28 28 28 29 28 28 29 29 29 30 30 30 29 29 29 30 29 28 29 30 30 30 30 31 30 30 31 31 31 31
29 29 28 28 29 28 28 29 29 29 29 29 29 29 29 29 30 30 30 30 29 29 29 29 29 29 29 30 30 30 30 30 30 31 31 31 31 31
29 29 29 28 28 28 29 30 30 30 30 30 30 29 30 30 30 30 30 30 30 30 29 29 29 30 29 29 29 30 30 30 30 30 31 31 31 31
29 29 29 29 28 29 30 31 30 30 30 31 31 31 31 31 31 30 29 29 29 29 29 29 29 30 30 30 29 30 31 31 31 31 30 30 31 31
29 29 29 29 29 30 30 31 31 31 31 31 32 32 32 31 30 30 30 29 30 29 29 28 29 30 30 30 30 30 31 31 31 31 31 31 31 31
30 30 30 30 30 31 31 31 31 31 32 32 32 32 31 31 31 31 31 31 30 30 30 30 30 30 31 30 30 30 31 31 32 32 32 32 32 32
32 32 32 32 32 32 33 33 33 33 33 32 32 32 32 32 32 32 32 32 31 31 31 30 30 31 31 31 30 30 30 31 32 32 31 32 32 33

GEFSNE_500_meanwind_342.txt.gz
Wind_Speed
19 19 18 18 17 17 18 17 17 18 18 18 19 19 19 19 19 19 20 20 20 20 21 22 22 22 22 23 23 23 23 23 23 23 23 23 23 23
20 20 20 19 19 19 19 19 19 19 20 20 20 20 20 20 21 21 21 22 22 22 22 22 23 23 23 24 24 24 25 25 24 24 24 24 24 24
21 21 21 21 20 20 21 20 20 21 21 21 21 21 21 22 22 22 23 23 23 23 23 23 23 24 25 25 25 24 25 25 25 25 25 25 24 24
22 22 22 22 22 21 22 22 22 21 22 22 22 22 22 22 22 22 22 22 23 23 23 24 24 25 25 25 25 25 25 26 26 26 26 25 25 25
22 22 23 23 23 23 23 23 23 23 22 22 23 23 22 22 22 22 22 22 23 23 24 24 24 25 25 26 26 26 26 26 26 26 26 26 26 26
22 23 23 23 23 23 24 24 24 24 23 23 23 23 23 23 22 22 22 23 24 24 24 24 25 25 25 26 27 27 27 27 26 26 26 26 26 27
23 23 23 23 24 23 24 24 24 24 24 24 24 24 24 25 24 24 24 24 23 23 23 24 25 25 25 26 27 28 28 28 28 27 27 27 27 28
24 24 24 24 23 24 24 24 23 23 23 24 24 24 25 25 25 24 24 24 23 24 24 24 25 25 26 26 27 27 27 28 28 29 29 29 28 28
24 25 25 24 24 24 23 23 23 23 24 24 23 23 24 24 24 24 24 24 24 24 25 25 26 26 26 26 27 27 26 27 28 29 29 30 30 29
24 25 25 25 24 24 23 23 23 23 24 24 24 23 24 24 24 24 24 25 25 25 25 25 26 26 26 26 27 27 27 28 29 29 29 29 29 29
25 25 25 25 25 24 24 23 23 24 24 24 24 24 24 24 24 24 25 25 24 25 25 25 25 26 26 26 26 27 27 28 28 28 28 28 28 28
25 26 26 25 25 24 24 24 24 25 24 24 23 23 24 24 24 24 24 24 25 25 25 26 25 26 26 26 27 27 27 27 27 27 27 27 27 27
25 26 26 25 25 25 25 25 24 24 23 23 23 23 23 24 25 25 25 25 25 25 25 26 25 26 26 26 26 27 26 27 27 27 26 26 26 26
26 26 26 26 25 25 25 25 25 25 24 23 24 24 25 25 25 25 26 25 25 26 26 25 25 26 26 25 26 26 25 26 26 26 26 26 26 26
26 27 26 26 26 26 26 25 25 25 25 25 25 25 25 25 25 26 26 25 26 26 27 26 26 26 26 25 25 25 25 25 27 26 26 26 27 27
27 26 26 25 25 26 26 26 26 26 26 25 25 26 26 26 26 26 26 26 26 27 27 27 27 27 27 27 26 26 26 26 27 27 27 27 27 28
28 27 26 26 26 26 27 27 27 26 26 26 26 26 26 27 27 27 27 27 27 28 28 28 28 28 28 27 27 27 26 26 27 27 27 27 28 29
28 27 27 27 27 27 26 27 27 28 28 28 28 28 28 28 28 28 28 28 29 29 29 28 28 28 28 27 27 27 27 26 27 27 27 27 28 29
29 28 28 28 28 28 27 27 27 28 29 29 29 29 29 29 29 29 29 29 29 29 29 29 29 29 29 28 27 28 28 27 28 28 28 28 28 29
30 30 29 29 29 28 28 28 28 29 29 29 30 30 30 30 30 30 30 29 30 30 30 30 29 29 28 28 28 28 29 29 28 29 30 29 29 30
31 31 30 30 30 30 30 30 30 30 30 30 30 30 31 31 31 31 31 31 31 31 31 30 29 29 29 29 29 29 30 30 30 30 30 30 30 31
33 33 32 32 32 32 32 32 32 32 32 31 31 31 31 31 32 33 33 33 32 31 31 30 30 31 31 31 30 30 30 31 30 30 31 31 31 31
34 34 33 33 33 34 34 34 34 33 34 34 33 33 33 33 34 34 34 34 33 32 32 32 32 32 32 32 31 31 31 32 31 31 31 31 31 31

GEFSNE_500_meanwind_348.txt.gz
Wind_Speed
20 19 19 19 19 19 19 19 19 19 20 20 19 19 19 19 19 18 18 19 20 20 21 21 22 22 22 22 23 23 23 23 24 24 25 24 24 24
21 20 20 19 20 20 21 21 21 21 21 21 20 19 19 19 19 19 19 20 20 20 21 22 22 22 22 23 23 24 23 23 24 24 25 26 26 25
22 22 21 21 21 21 22 22 22 22 21 21 21 21 20 20 20 20 21 21 21 21 22 22 22 22 22 23 23 23 24 24 24 24 25 25 26 26
23 23 23 23 22 23 23 23 23 22 22 22 22 22 22 22 22 22 22 22 23 23 23 23 23 23 22 22 22 23 23 24 24 24 25 25 25 26
24 24 24 24 23 23 23 23 24 24 24 23 23 23 23 23 23 23 23 23 23 23 23 23 23 23 23 22 22 22 23 24 25 25 25 25 26 26
24 24 25 25 25 24 24 24 24 24 24 24 24 23 24 24 24 24 24 24 24 24 24 23 23 23 23 23 23 23 24 24 25 25 25 25 26 26
25 26 25 25 26 25 25 25 25 24 24 24 24 24 24 24 24 25 25 24 24 24 24 24 24 23 23 23 24 24 24 24 25 25 25 26 26 27
26 26 27 27 26 26 26 26 26 26 25 25 25 25 25 25 25 25 25 24 24 24 25 24 24 24 23 24 24 25 24 25 25 26 26 27 27 27
26 26 27 27 26 26 26 26 26 26 26 26 26 26 26 26 26 26 26 25 25 25 26 25 25 25 24 24 25 25 25 25 25 25 26 26 26 27
26 27 26 27 27 27 26 26 26 26 26 27 27 27 27 27 27 27 27 26 26 26 26 26 26 26 25 25 25 25 25 25 26 26 27 27 27 27
26 26 26 26 27 27 27 27 27 27 28 28 28 27 27 28 28 28 28 27 27 27 27 27 26 27 26 26 26 26 26 26 26 26 27 27 27 27
27 27 27 26 27 27 28 27 28 27 28 28 29 28 28 28 28 28 28 28 28 28 28 28 27 27 27 27 27 27 27 26 27 28 28 28 28 28
27 27 27 28 28 28 28 29 29 29 29 29 29 30 30 29 29 29 29 29 29 29 29 29 28 28 28 28 28 28 28 28 28 28 29 29 29 29
29 29 28 28 28 28 29 30 30 30 29 29 30 30 30 30 29 29 29 29 29 29 29 29 29 29 29 29 29 29 29 29 29 29 29 30 30 30
31 31 30 29 29 29 29 29 29 30 29 29 29 29 29 29 29 29 29 28 28 29 29 29 29 30 30 30 30 30 30 30 30 30 30 30 31 30
30 29 29 28 27 27 28 28 28 28 29 28 28 29 29 29 29 28 28 29 29 29 29 29 30 30 30 31 31 31 31 31 31 30 30 30 30 30
29 29 28 28 28 28 28 28 28 29 28 28 28 28 28 28 29 29 29 29 29 30 30 30 30 30 31 31 31 31 31 30 30 30 30 30 30 30
29 29 28 28 29 28 28 29 29 29 29 29 29 29 29 29 29 30 30 30 30 30 30 30 30 30 31 31 31 31 30 30 30 30 30 30 30 30
29 29 29 30 30 30 30 30 30 30 30 30 30 30 31 31 31 31 31 31 31 30 30 30 31 31 31 31 31 31 31 30 30 30 30 30 30 30
29 29 30 31 30 31 31 31 30 31 31 31 31 31 31 32 32 32 32 32 32 32 32 32 33 32 32 32 32 31 32 31 31 31 30 30 30 31
30 30 30 30 30 31 32 32 31 31 32 32 32 31 32 32 33 33 33 33 33 33 33 33 33 33 32 32 32 31 31 31 31 31 31 31 31 31
31 30 30 30 31 31 32 32 32 32 33 33 33 32 32 33 33 33 33 33 33 33 33 33 33 32 32 32 32 31 31 31 32 32 32 32 32 32
31 31 31 31 31 32 32 32 32 33 33 33 33 33 33 33 34 34 34 34 34 33 33 33 33 32 32 32 32 32 32 32 32 33 33 32 32 33

GEFSNE_500_meanwind_354.txt.gz
Wind_Speed
20 20 20 19 19 20 20 19 18 18 18 18 18 17 18 18 17 17 17 18 18 18 18 18 19 19 19 19 19 20 20 20 21 20 20 21 20 21
20 20 20 20 20 20 20 20 19 20 20 19 19 19 19 19 18 18 18 19 19 19 20 20 20 20 20 20 20 20 20 21 21 21 21 21 21 21
22 22 22 21 21 21 21 21 21 22 22 21 20 21 20 19 19 19 20 20 20 20 20 20 21 21 21 21 21 20 21 21 21 20 20 20 20 21
23 23 23 23 23 23 23 24 24 24 24 23 22 22 22 22 21 21 21 21 21 21 21 21 22 22 23 22 22 21 21 21 21 21 20 20 20 20
25 24 24 24 24 25 25 25 25 26 25 24 24 24 24 23 23 22 23 23 23 23 22 23 23 23 23 23 23 22 22 22 21 21 22 21 21 21
25 24 24 24 24 25 26 26 27 27 27 26 25 25 25 25 25 24 24 24 24 24 24 24 24 23 23 23 23 23 23 23 23 22 22 22 22 22
25 25 25 25 25 26 26 26 26 27 27 27 26 25 25 25 26 26 26 26 25 25 25 25 24 24 25 25 25 25 24 24 24 24 24 23 23 23
27 27 26 26 27 27 26 27 27 27 27 28 27 27 26 26 27 26 26 26 26 26 26 26 25 25 25 26 26 26 26 25 25 25 24 24 24 24
27 27 28 27 27 27 27 27 27 27 27 28 28 28 28 27 27 27 27 26 26 26 27 27 27 26 26 26 26 26 26 26 26 26 26 25 25 26
28 28 28 28 28 27 27 27 27 27 27 28 28 28 28 28 27 27 28 28 28 28 27 27 27 27 26 26 25 25 25 26 26 26 26 26 26 26
30 29 29 29 28 28 28 28 28 27 27 28 28 28 28 28 29 28 29 30 30 29 29 28 28 27 26 26 26 26 26 27 27 27 27 27 27 27
30 30 30 30 29 29 29 29 29 28 28 28 28 28 28 28 29 29 29 30 30 30 29 30 30 29 29 28 28 27 28 28 28 28 28 28 28 28
31 30 30 30 29 29 29 29 29 29 28 28 28 28 28 29 30 29 29 29 29 29 29 30 30 30 30 29 29 29 29 29 29 29 29 29 29 29
31 30 30 29 30 30 30 30 29 29 28 28 28 28 29 30 30 29 29 30 30 30 30 30 30 30 30 30 30 30 30 30 30 29 29 30 30 30
30 30 30 30 30 31 31 30 30 29 29 28 29 29 29 29 29 30 30 30 30 30 29 30 30 30 30 30 30 30 30 30 30 30 30 30 30 30
31 30 29 28 29 30 30 30 29 29 29 29 30 30 30 30 30 30 30 30 30 30 31 30 30 30 30 30 30 30 30 30 30 30 30 31 31 31
30 29 29 28 28 28 29 29 29 29 30 30 29 30 30 30 30 31 31 31 31 31 31 31 32 31 31 31 32 32 32 31 31 31 31 31 31 32
29 29 29 28 28 27 28 29 30 30 30 29 30 30 30 31 31 30 30 31 30 30 31 32 32 32 31 31 32 32 33 32 32 32 32 32 32 32
29 29 29 29 28 28 29 29 30 30 30 30 30 30 31 31 31 31 30 30 31 31 31 31 32 31 31 31 32 33 33 32 32 32 33 32 32 32
30 30 30 30 30 29 29 29 30 30 30 30 30 30 31 31 32 31 31 30 30 31 31 31 31 31 32 32 32 33 33 32 32 32 32 32 32 32
31 31 31 30 31 30 30 30 30 30 30 30 31 31 31 31 31 31 31 30 31 31 31 31 31 32 33 33 32 32 32 32 32 32 32 32 32 32
32 32 31 31 31 31 31 31 31 30 31 31 31 31 31 31 31 31 31 31 31 32 31 31 32 32 33 32 32 31 31 32 32 32 33 33 32 32
33 32 32 32 32 32 32 32 32 31 30 31 31 31 32 32 32 32 31 31 32 32 32 32 32 32 32 32 32 32 32 32 33 33 33 34 34 34